New Bedford, MA

6:21 AM EDT on September 26, 2017 (GMT -0400)
New Bedford Regional

Weather History for KEWB - March, 2013

Change the Weather History Date:

Tuesday, March 19, 2013

  Actual Average Record
Temperature  
Mean Temperature 34 °F -  
Max Temperature 39 °F 45 °F 77 °F (2012)
Min Temperature 30 °F 30 °F 4 °F (1967)
Degree Days  
Heating Degree Days 30    
Moisture  
Dew Point 32 °F    
Average Humidity 91    
Maximum Humidity 100    
Minimum Humidity 70    
Precipitation  
Precipitation 0.71 in - - ()
Sea Level Pressure  
Sea Level Pressure 29.87 in    
Wind  
Wind Speed 12 mph (NE)    
Max Wind Speed 16 mph    
Max Gust Speed 24 mph    
Visibility 3 miles    
Events Fog , Rain , Snow    
Averages and records for this station are not official NWS values.
T = Trace of Precipitation, MM = Missing Value Source: NWS Daily Summary

Daily Weather History Graph

Daily Weather History Graph

Search for Another Location

Airport or City:

Trip Planner

Search our weather history database for the weather conditions in past years. The results will help you decide how hot, cold, wet, or windy it might be!

Date:

Astronomy

Mar. 19, 2013 Rise Set
Actual Time 6:48 AM EDT 6:55 PM EDT
Civil Twilight 6:20 AM EDT 7:22 PM EDT
Nautical Twilight 5:48 AM EDT 7:55 PM EDT
Astronomical Twilight 5:15 AM EDT 8:28 PM EDT
Moon 11:31 AM EDT (3/19) 1:44 AM EDT (3/19)
Length of Visible Light 13h 02m
Length of Day
12h 06m
Waxing Crescent, 49% of the Moon is Illuminated
Mar 19
Waxing Crescent
Mar 19
First Quarter
Mar 27
Full
Apr 3
Last Quarter
Apr 10
New

Hourly Weather History & Observations

Time (EDT) Temp. Windchill Dew Point Humidity Pressure Visibility Wind Dir Wind Speed Gust Speed Precip Events Conditions
12:13 AM 33.8 °F 23.5 °F 24.8 °F 70% 30.21 in 1.8 mi ESE 16.1 mph 21.9 mph 0.00 in Snow Light Snow
12:23 AM 32.0 °F 21.6 °F 26.6 °F 80% 30.20 in 0.8 mi ESE 15.0 mph - 0.00 in Snow Light Snow
12:41 AM 30.2 °F 21.3 °F 28.4 °F 93% 30.18 in 0.5 mi East 10.4 mph - 0.00 in Fog , Snow Snow
12:53 AM 30.9 °F 21.7 °F 28.9 °F 92% 30.17 in 0.5 mi East 11.5 mph - 0.01 in Fog , Snow Snow
1:17 AM 30.2 °F 21.3 °F 28.4 °F 93% 30.14 in 0.2 mi East 10.4 mph - 0.03 in Fog , Snow Heavy Snow
1:33 AM 30.2 °F 20.8 °F 28.4 °F 93% 30.13 in 0.5 mi East 11.5 mph 18.4 mph 0.04 in Fog , Snow Snow
1:50 AM 30.2 °F 20.2 °F 28.4 °F 93% 30.11 in 1.0 mi East 12.7 mph - 0.04 in Snow Light Snow
1:53 AM 30.9 °F 19.8 °F 28.9 °F 92% 30.12 in 1.0 mi East 16.1 mph 21.9 mph 0.04 in Snow Light Snow
2:10 AM 30.2 °F 19.8 °F 28.4 °F 93% 30.10 in 3.0 mi East 13.8 mph - 0.01 in Snow Light Snow
2:28 AM 32.0 °F 22.1 °F 28.4 °F 87% 30.08 in 9.0 mi East 13.8 mph 19.6 mph 0.01 in   Overcast
2:48 AM 32.0 °F 24.8 °F 28.4 °F 87% 30.06 in 7.0 mi East 8.1 mph - 0.02 in Rain Light Freezing Rain
2:53 AM 32.0 °F 23.0 °F 28.9 °F 88% 30.06 in 6.0 mi East 11.5 mph 18.4 mph 0.02 in Rain Light Freezing Rain
3:19 AM 32.0 °F 24.2 °F 28.4 °F 87% 30.05 in 4.0 mi East 9.2 mph 17.3 mph 0.02 in Rain Light Freezing Rain
3:28 AM 32.0 °F 23.6 °F 28.4 °F 87% 30.04 in 5.0 mi East 10.4 mph - 0.03 in Rain Light Freezing Rain
3:53 AM 32.0 °F 23.6 °F 28.9 °F 88% 30.04 in 3.0 mi East 10.4 mph - 0.05 in Rain Light Freezing Rain
3:58 AM 32.0 °F 23.0 °F 28.4 °F 87% 30.03 in 4.0 mi ENE 11.5 mph - 0.01 in   Overcast
4:23 AM 32.0 °F 22.1 °F 30.2 °F 93% 30.00 in 2.0 mi East 13.8 mph - 0.04 in Rain Rain
4:27 AM 32.0 °F 23.6 °F 30.2 °F 93% 30.00 in 1.5 mi East 10.4 mph - 0.05 in Rain Rain
4:37 AM 32.0 °F 21.6 °F 30.2 °F 93% 29.99 in 1.0 mi ENE 15.0 mph 19.6 mph 0.07 in   Overcast
4:45 AM 32.0 °F 23.0 °F 30.2 °F 93% 29.99 in 0.5 mi ENE 11.5 mph 19.6 mph 0.08 in Fog , Snow Light Snow
4:53 AM 32.0 °F 23.6 °F 30.0 °F 92% 29.99 in 0.8 mi ENE 10.4 mph - 0.10 in Snow Light Snow
5:05 AM 32.0 °F 22.5 °F 30.2 °F 93% 29.99 in 1.2 mi ENE 12.7 mph - 0.02 in   Overcast
5:25 AM 32.0 °F 23.0 °F 30.2 °F 93% 29.98 in 1.0 mi ENE 11.5 mph - 0.05 in   Overcast
5:38 AM 32.0 °F 23.6 °F 30.2 °F 93% 29.99 in 2.0 mi ENE 10.4 mph - 0.07 in Rain Light Freezing Rain
5:44 AM 32.0 °F 24.2 °F 30.2 °F 93% 29.99 in 3.0 mi ENE 9.2 mph - 0.07 in Rain Light Freezing Rain
5:53 AM 32.0 °F 23.6 °F 30.0 °F 92% 29.99 in 3.0 mi ENE 10.4 mph - 0.08 in Rain Light Freezing Rain
6:03 AM 32.0 °F 22.5 °F 30.2 °F 93% 29.98 in 2.5 mi ENE 12.7 mph - 0.01 in Rain Light Freezing Rain
6:11 AM 32.0 °F 23.0 °F 30.2 °F 93% 29.98 in 1.8 mi ENE 11.5 mph - 0.01 in   Overcast
6:18 AM 32.0 °F 23.6 °F 30.2 °F 93% 29.98 in 2.0 mi ENE 10.4 mph - 0.02 in   Overcast
6:43 AM 33.8 °F 26.4 °F 30.2 °F 87% 29.97 in 2.0 mi ENE 9.2 mph - 0.04 in   Overcast
6:53 AM 33.1 °F 24.4 °F 30.9 °F 92% 29.97 in 2.0 mi ENE 11.5 mph - 0.04 in   Overcast
7:00 AM 33.8 °F 25.3 °F 30.2 °F 87% 29.96 in 2.0 mi ENE 11.5 mph - 0.00 in Rain Light Freezing Rain
7:43 AM 33.8 °F 24.8 °F 30.2 °F 87% 29.92 in 2.0 mi ENE 12.7 mph - 0.01 in Rain Light Rain
7:53 AM 33.1 °F 22.6 °F 30.9 °F 92% 29.92 in 2.0 mi ENE 16.1 mph 24.2 mph 0.02 in Rain Light Rain
8:53 AM 34.0 °F 23.8 °F 32.0 °F 92% 29.88 in 2.0 mi ENE 16.1 mph - 0.02 in Rain Light Rain
9:16 AM 33.8 °F 24.3 °F 32.0 °F 93% 29.86 in 4.0 mi ENE 13.8 mph 21.9 mph 0.01 in Rain Light Rain
9:53 AM 35.1 °F 26.4 °F 33.1 °F 92% 29.83 in 3.0 mi ENE 12.7 mph 21.9 mph 0.04 in Rain Light Rain
10:53 AM 37.0 °F 28.5 °F 34.0 °F 89% 29.79 in 2.0 mi ENE 13.8 mph 20.7 mph 0.10 in Rain Rain
11:53 AM 37.9 °F 30.0 °F 35.1 °F 89% 29.75 in 5.0 mi ENE 12.7 mph - 0.06 in Rain Light Rain
12:53 PM 37.9 °F 30.5 °F 36.0 °F 93% 29.70 in 3.0 mi ENE 11.5 mph - 0.02 in Rain Light Rain
1:16 PM 39.2 °F 32.5 °F 37.4 °F 93% 29.66 in 2.0 mi NE 10.4 mph - 0.00 in Rain Light Rain
1:53 PM 39.0 °F 32.3 °F 37.0 °F 93% 29.62 in 2.0 mi ENE 10.4 mph 19.6 mph 0.02 in Rain Light Rain
2:00 PM 39.2 °F 32.5 °F 37.4 °F 93% 29.61 in 1.8 mi ENE 10.4 mph - 0.00 in Rain Light Rain
2:53 PM 39.9 °F 37.8 °F 37.9 °F 93% 29.58 in 0.8 mi NE 3.5 mph - 0.02 in Rain Light Rain
3:00 PM 39.2 °F 35.9 °F 39.2 °F 100% 29.58 in 1.0 mi North 4.6 mph - 0.01 in Rain Rain
3:53 PM 39.9 °F 35.1 °F 39.0 °F 97% 29.56 in 1.0 mi North 6.9 mph - 0.04 in Rain Light Rain
4:32 PM 39.2 °F 32.0 °F 37.4 °F 93% 29.53 in 2.5 mi North 11.5 mph 18.4 mph 0.00 in Rain Light Rain
4:53 PM 39.9 °F 34.5 °F 37.9 °F 93% 29.53 in 5.0 mi North 8.1 mph 17.3 mph 0.02 in Rain Light Rain
5:53 PM 39.9 °F 35.1 °F 37.9 °F 93% 29.53 in 10.0 mi NW 6.9 mph - 0.00 in   Overcast
6:28 PM 39.2 °F 33.0 °F 37.4 °F 93% 29.55 in 1.8 mi NW 9.2 mph 20.7 mph N/A   Overcast
6:53 PM 37.0 °F 30.4 °F 36.0 °F 96% 29.57 in 1.2 mi WNW 9.2 mph - N/A   Overcast
7:11 PM 37.4 °F 32.1 °F 35.6 °F 93% 29.58 in 3.0 mi NW 6.9 mph 16.1 mph N/A   Overcast
7:53 PM 36.0 °F 28.5 °F 34.0 °F 93% 29.59 in 5.0 mi WNW 10.4 mph - N/A   Overcast
8:53 PM 35.1 °F 25.9 °F 33.1 °F 92% 29.63 in 9.0 mi West 13.8 mph - 0.00 in Rain Light Rain
9:53 PM 34.0 °F 23.8 °F 32.0 °F 92% 29.65 in 6.0 mi WNW 16.1 mph 23.0 mph 0.01 in Snow Light Snow
10:21 PM 33.8 °F 24.8 °F 30.2 °F 87% 29.65 in 10.0 mi WNW 12.7 mph 24.2 mph 0.00 in   Overcast
10:51 PM 33.8 °F 25.3 °F 30.2 °F 87% 29.64 in 10.0 mi WNW 11.5 mph 20.7 mph 0.00 in   Scattered Clouds
10:53 PM 33.1 °F 24.9 °F 30.0 °F 89% 29.65 in 10.0 mi WNW 10.4 mph 20.7 mph 0.00 in   Scattered Clouds
11:41 PM 33.8 °F 24.8 °F 30.2 °F 87% 29.67 in 10.0 mi WNW 12.7 mph 19.6 mph N/A   Mostly Cloudy
11:53 PM 33.1 °F 26.1 °F 28.9 °F 85% 29.67 in 10.0 mi NW 8.1 mph 17.3 mph N/A   Overcast